sat.trackr.live / text

‹ back to catalog

PROBA-2

NORAD 36037 · 2009-059B

PAYLOAD ACTIVE UNKNOWN

§ Identity

Operator
Country
ESA
Launch date
2009-11-02
Launch site
PLMSC
Launch vehicle
Mass (kg)
RCS (m²)
0.44

Purposes: tech_demo

External: N2YO · Heavens-Above · Gunter

§ Orbital elements

Epoch: 2026-09-19T17:41:16.917504Z

Period
98.98 min
Inclination
98.2482°
Eccentricity
0.0013109
Mean motion
14.54895045 rev/d
Perigee alt
700.4 km
Apogee alt
719.0 km
Semi-major
7,087.8 km
B*
3.3410e-5
RAAN
84.8067°
Arg perigee
354.3567°
Mean anomaly
5.7481°
Rev number
89,527

§ Raw data

PROBA-21 36037U 09059B   26262.73700136  .00000098  00000+0  33410-4 0  99982 36037  98.2482  84.8067 0013109 354.3567   5.7481 14.54895045895275

JSON: /api/v1/satellites/36037 · /tle

For live sub-satellite position, see the globe view (requires WebGL).

§ Visibility from observer

Set your observer location to see the next 7 days of passes ≥ 10°. The values pass through the URL so the page stays shareable.

No JS? Fill the form by hand. The geolocation button needs JavaScript.

§ Radio — SatNOGS DB

ModeDescriptionDownlinkUplink
BPSK S-Band 128000 BPSK Experimental 2.235 GHz
BPSK S-Band BPSK 2.235 GHz

2 transmitters · refreshed weekly from db.satnogs.org